Tracking 30923 objects as of 1-Jul-2025
HD Live streaming from Space Station
objects crossing your sky now

STARLINK-5199

Track STARLINK-5199 now!
10-day predictions
STARLINK-5199 is classified as:


NORAD ID: 54201
Int'l Code: 2022-141AW
Perigee: 545.9 km
Apogee: 547.8 km
Inclination: 53.2 °
Period: 95.4 minutes
Semi major axis: 6917 km
RCS: Unknown
Launch date: October 28, 2022
Source: United States (US)
Launch site: AIR FORCE WESTERN TEST RANGE (AFWTR)
Your satellite tracking list
Your tracking list is empty




NASA's NSSDC Master Catalog

Two Line Element Set (TLE):
1 54201U 22141AW  25181.88327339  .00000226  00000-0  32292-4 0  9994
2 54201  53.2180  44.5186 0001354  88.8558 271.2589 15.08842236148215
Source of the keplerian elements: AFSPC